Location: Poughquag
(41.6090°N, 73.6820°W)
Time: 11:34:51
(UTC-04:00)

S-56A Canister/Altair - Pass Details

Date: 05 June 2020
Orbit: 633 x 2499 km, 38.9° (Epoch: 06 July)

Event Time Altitude Azimuth Distance (km) Brightness Sun altitude
Rises 10:40:33 0° 276° (W) 4,366 11.1 56.4°
Reaches altitude 10° 10:43:56 10° 262° (W) 3,676 10.8 57.0°
Maximum altitude 10:51:05 23° 215° (SW) 3,283 11.0 58.2°
Drops below altitude 10° 11:00:09 10° 170° (S) 4,756 12.0 59.7°
Sets 11:05:26 0° 158° (SSE) 5,978 12.4 60.5°
